Tracking 29932 objects as of 3-Dec-2024
HD Live streaming from Space Station
objects crossing your sky now

STARLINK-32357

Track STARLINK-32357 now!
10-day predictions
STARLINK-32357 is classified as:


NORAD ID: 61009
Int'l Code: 2024-158V
Perigee: 368.2 km
Apogee: 385.0 km
Inclination: 53.2 °
Period: 91.9 minutes
Semi major axis: 6747 km
RCS: Unknown
Launch date: September 5, 2024
Source: United States (US)
Launch site: AIR FORCE EASTERN TEST RANGE (AFETR)
Your satellite tracking list
Your tracking list is empty




NASA's NSSDC Master Catalog

Two Line Element Set (TLE):
1 61009U 24158V   24337.91667824  .00145622  00000-0  13566-2 0  9991
2 61009  53.1547  42.8395 0012413   8.9049  88.7613 15.66322534  5954
Source of the keplerian elements: AFSPC